User: anonymous   Login
Location: City of Moscow
(46.7306°N, 116.9989°W)
Time: 02:45:58
(UTC+00:00)
Language:

ACS3 Solar Sail - Orbit

View from above orbital plane
View from above orbital plane
View from above satellite
View from above satellite

Ground track
Ground track

The orbit is defined by the following mean orbital elements,

1 59588U          26065.40162319 +.00000000 +00000-0 +22568-1 0 00007
2 59588  97.2094   7.2527 0057270  85.3402 275.4299 13.89441729    00
Epoch (UTC): 06 March 2026 09:38:20
Eccentricity: 0.0057270
inclination: 97.2094°
perigee height: 889 km
apogee height: 972 km
right ascension of ascending node: 7.2527°
argument of perigee: 85.3402°
revolutions per day: 13.89441729
mean anomaly at epoch: 275.4299°

The dashed part of the orbit path shows where the satellite is in the earth's shadow,  

DLR